Time,TemperatureF,DewpointF,PressureIn,WindDirection,WindDirectionDegrees,WindSpeedMPH,WindSpeedGustMPH,Humidity,HourlyPrecipIn,Conditions,Clouds,dailyrainin,SolarRadiationWatts/m^2,SoftwareType,DateUTC
2013-02-16 00:00:00,39.4,38.1,29.93,SE,132,0.0,5.0,95,-99.99,,,-99.99,0.0,meteohub,2013-02-16 05:00:00,
2013-02-16 00:01:00,39.4,38.1,29.93,SE,132,0.0,5.0,95,-99.99,,,-99.99,0.0,meteohub,2013-02-16 05:01:00,
2013-02-16 00:02:00,39.4,38.1,29.93,SE,132,0.0,5.0,95,-99.99,,,-99.99,0.0,meteohub,2013-02-16 05:02:00,
2013-02-16 00:07:00,39.4,38.1,29.93,SE,132,0.0,2.0,95,-99.99,,,-99.99,0.0,meteohub,2013-02-16 05:07:00,
2013-02-16 00:12:00,39.4,38.1,29.93,SE,132,0.0,2.0,95,-99.99,,,-99.99,0.0,meteohub,2013-02-16 05:12:00,
2013-02-16 00:17:00,39.4,38.1,29.92,SE,132,0.0,1.0,95,-99.99,,,-99.99,0.0,meteohub,2013-02-16 05:17:00,
2013-02-16 00:22:00,39.4,38.3,29.92,SE,132,0.0,1.0,96,-99.99,,,-99.99,0.0,meteohub,2013-02-16 05:22:00,
2013-02-16 00:24:00,39.4,38.1,29.92,SE,132,0.0,1.0,95,-99.99,,,-99.99,0.0,meteohub,2013-02-16 05:24:00,
2013-02-16 00:29:00,39.4,38.1,29.92,SE,132,0.0,1.0,95,-99.99,,,-99.99,0.0,meteohub,2013-02-16 05:29:00,
2013-02-16 00:34:00,39.4,38.1,29.92,SE,132,0.0,1.0,95,-99.99,,,-99.99,0.0,meteohub,2013-02-16 05:34:00,
2013-02-16 00:39:00,39.4,38.1,29.92,SE,132,0.0,1.0,95,-99.99,,,-99.99,0.0,meteohub,2013-02-16 05:39:00,
2013-02-16 00:44:00,39.0,37.8,29.93,SE,132,0.0,0.0,95,-99.99,,,-99.99,0.0,meteohub,2013-02-16 05:44:00,
2013-02-16 00:49:00,39.0,37.8,29.93,SE,132,0.0,0.0,95,-99.99,,,-99.99,0.0,meteohub,2013-02-16 05:49:00,
2013-02-16 00:54:00,38.8,37.6,29.92,SE,132,0.0,0.0,95,-99.99,,,-99.99,0.0,meteohub,2013-02-16 05:54:00,
2013-02-16 00:59:00,38.8,37.8,29.93,SE,132,0.0,0.0,96,-99.99,,,-99.99,0.0,meteohub,2013-02-16 05:59:00,
2013-02-16 01:04:00,38.8,37.8,29.93,SE,132,0.0,0.0,96,-99.99,,,-99.99,0.0,meteohub,2013-02-16 06:04:00,
2013-02-16 01:09:00,38.5,37.2,29.93,SE,132,0.0,0.0,95,-99.99,,,-99.99,0.0,meteohub,2013-02-16 06:09:00,
2013-02-16 01:14:00,37.9,36.7,29.93,SE,132,0.0,0.0,95,-99.99,,,-99.99,0.0,meteohub,2013-02-16 06:14:00,
2013-02-16 01:19:00,37.9,36.7,29.92,SE,132,0.0,0.0,95,-99.99,,,-99.99,0.0,meteohub,2013-02-16 06:19:00,
2013-02-16 01:24:00,38.1,37.0,29.93,SE,132,0.0,0.0,96,-99.99,,,-99.99,0.0,meteohub,2013-02-16 06:24:00,
2013-02-16 01:29:00,38.1,37.0,29.92,SE,132,0.0,0.0,96,-99.99,,,-99.99,0.0,meteohub,2013-02-16 06:29:00,
2013-02-16 01:34:00,38.1,37.0,29.92,SE,132,0.0,0.0,96,-99.99,,,-99.99,0.0,meteohub,2013-02-16 06:34:00,
2013-02-16 01:39:00,38.1,37.0,29.92,SE,132,0.0,0.0,96,-99.99,,,-99.99,0.0,meteohub,2013-02-16 06:39:00,
2013-02-16 01:44:00,38.1,37.0,29.92,SE,132,0.0,0.0,96,-99.99,,,-99.99,0.0,meteohub,2013-02-16 06:44:00,
2013-02-16 01:49:00,37.9,36.9,29.92,SE,132,0.0,0.0,96,-99.99,,,-99.99,0.0,meteohub,2013-02-16 06:49:00,
2013-02-16 01:54:00,37.6,36.3,29.92,SE,132,0.0,0.0,95,-99.99,,,-99.99,0.0,meteohub,2013-02-16 06:54:00,
2013-02-16 01:59:00,37.0,35.8,29.92,SE,132,0.0,0.0,95,-99.99,,,-99.99,0.0,meteohub,2013-02-16 06:59:00,
2013-02-16 02:04:00,36.9,35.8,29.92,SE,132,0.0,0.0,96,-99.99,,,-99.99,0.0,meteohub,2013-02-16 07:04:00,
2013-02-16 02:09:00,36.9,35.8,29.92,SE,132,0.0,0.0,96,-99.99,,,-99.99,0.0,meteohub,2013-02-16 07:09:00,
2013-02-16 02:14:00,36.7,35.6,29.92,SE,132,0.0,0.0,96,-99.99,,,-99.99,0.0,meteohub,2013-02-16 07:14:00,
2013-02-16 02:19:00,36.7,35.6,29.92,SE,132,0.0,0.0,96,-99.99,,,-99.99,0.0,meteohub,2013-02-16 07:19:00,
2013-02-16 02:24:00,36.7,35.6,29.93,SE,132,0.0,0.0,96,-99.99,,,-99.99,0.0,meteohub,2013-02-16 07:24:00,
2013-02-16 02:29:00,36.3,35.2,29.93,SE,132,0.0,0.0,96,-99.99,,,-99.99,0.0,meteohub,2013-02-16 07:29:00,
2013-02-16 02:34:00,36.3,35.2,29.93,SE,132,0.0,0.0,96,-99.99,,,-99.99,0.0,meteohub,2013-02-16 07:34:00,
2013-02-16 02:40:00,36.3,35.2,29.93,SE,132,0.0,0.0,96,-99.99,,,-99.99,0.0,meteohub,2013-02-16 07:40:00,
2013-02-16 02:45:00,36.3,35.6,29.93,SE,132,0.0,0.0,97,-99.99,,,-99.99,0.0,meteohub,2013-02-16 07:45:00,
2013-02-16 02:50:00,36.3,35.6,29.93,SE,132,0.0,0.0,97,-99.99,,,-99.99,0.0,meteohub,2013-02-16 07:50:00,
2013-02-16 02:55:00,36.3,35.6,29.92,SE,132,0.0,0.0,97,-99.99,,,-99.99,0.0,meteohub,2013-02-16 07:55:00,
2013-02-16 03:00:00,36.1,35.4,29.92,SE,132,0.0,0.0,97,-99.99,,,-99.99,0.0,meteohub,2013-02-16 08:00:00,
2013-02-16 03:05:00,36.0,35.2,29.92,SE,132,0.0,0.0,97,-99.99,,,-99.99,0.0,meteohub,2013-02-16 08:05:00,
2013-02-16 03:10:00,35.6,34.5,29.92,SE,132,0.0,0.0,96,-99.99,,,-99.99,0.0,meteohub,2013-02-16 08:10:00,
2013-02-16 03:15:00,35.2,34.2,29.92,SE,132,0.0,1.0,96,-99.99,,,-99.99,0.0,meteohub,2013-02-16 08:15:00,
2013-02-16 03:20:00,35.1,34.0,29.92,SE,132,0.0,1.0,96,-99.99,,,-99.99,0.0,meteohub,2013-02-16 08:20:00,
2013-02-16 03:25:00,35.1,34.3,29.91,SE,132,0.0,1.0,97,-99.99,,,-99.99,0.0,meteohub,2013-02-16 08:25:00,
2013-02-16 03:30:00,34.9,34.2,29.91,SE,132,0.0,1.0,97,-99.99,,,-99.99,0.0,meteohub,2013-02-16 08:30:00,
2013-02-16 03:35:00,34.7,34.0,29.91,SE,132,0.0,1.0,97,-99.99,,,-99.99,0.0,meteohub,2013-02-16 08:35:00,
2013-02-16 03:40:00,34.5,33.8,29.91,SE,132,0.0,1.0,97,-99.99,,,-99.99,0.0,meteohub,2013-02-16 08:40:00,
2013-02-16 03:45:00,34.5,33.8,29.91,SE,132,0.0,0.0,97,-99.99,,,-99.99,0.0,meteohub,2013-02-16 08:45:00,
2013-02-16 03:50:00,34.5,33.8,29.91,SE,132,0.0,0.0,97,-99.99,,,-99.99,0.0,meteohub,2013-02-16 08:50:00,
2013-02-16 03:55:00,34.3,33.6,29.91,SE,132,0.0,0.0,97,-99.99,,,-99.99,0.0,meteohub,2013-02-16 08:55:00,
2013-02-16 04:00:00,34.3,33.6,29.91,SE,132,0.0,0.0,97,-99.99,,,-99.99,0.0,meteohub,2013-02-16 09:00:00,
2013-02-16 04:05:00,34.2,33.4,29.91,SE,132,0.0,0.0,97,-99.99,,,-99.99,0.0,meteohub,2013-02-16 09:05:00,
2013-02-16 04:10:00,34.0,33.3,29.90,SE,132,0.0,0.0,97,-99.99,,,-99.99,0.0,meteohub,2013-02-16 09:10:00,
2013-02-16 04:15:00,33.8,33.1,29.90,SE,132,0.0,0.0,97,-99.99,,,-99.99,0.0,meteohub,2013-02-16 09:15:00,
2013-02-16 04:20:00,33.6,32.9,29.90,SE,132,0.0,0.0,97,-99.99,,,-99.99,0.0,meteohub,2013-02-16 09:20:00,
2013-02-16 04:25:00,33.6,32.9,29.90,SE,132,0.0,0.0,97,-99.99,,,-99.99,0.0,meteohub,2013-02-16 09:25:00,
2013-02-16 04:30:00,34.0,33.3,29.90,SE,132,0.0,0.0,97,-99.99,,,-99.99,0.0,meteohub,2013-02-16 09:30:00,
2013-02-16 04:35:00,34.0,33.3,29.90,SE,132,0.0,0.0,97,-99.99,,,-99.99,0.0,meteohub,2013-02-16 09:35:00,
2013-02-16 04:40:00,34.0,33.3,29.90,SE,132,0.0,0.0,97,-99.99,,,-99.99,0.0,meteohub,2013-02-16 09:40:00,
2013-02-16 04:45:00,34.0,33.3,29.91,SE,132,0.0,0.0,97,-99.99,,,-99.99,0.0,meteohub,2013-02-16 09:45:00,
2013-02-16 04:50:00,33.8,33.1,29.91,SE,132,0.0,1.0,97,-99.99,,,-99.99,0.0,meteohub,2013-02-16 09:50:00,
2013-02-16 04:55:00,33.6,32.9,29.90,SE,132,0.0,1.0,97,-99.99,,,-99.99,0.0,meteohub,2013-02-16 09:55:00,
2013-02-16 05:00:00,33.4,32.7,29.90,SE,132,0.0,0.0,97,-99.99,,,-99.99,0.0,meteohub,2013-02-16 10:00:00,
2013-02-16 05:05:00,33.4,32.7,29.90,SE,132,0.0,1.0,97,-99.99,,,-99.99,0.0,meteohub,2013-02-16 10:05:00,
2013-02-16 05:10:00,33.3,32.7,29.90,SE,135,0.0,1.0,98,-99.99,,,-99.99,0.0,meteohub,2013-02-16 10:10:00,
2013-02-16 05:15:00,33.3,32.7,29.90,SE,135,0.0,1.0,98,-99.99,,,-99.99,0.0,meteohub,2013-02-16 10:15:00,
2013-02-16 05:20:00,33.1,32.5,29.90,SE,135,0.0,1.0,98,-99.99,,,-99.99,0.0,meteohub,2013-02-16 10:20:00,
2013-02-16 05:25:00,33.1,32.5,29.90,East,80,0.0,2.0,98,-99.99,,,-99.99,0.0,meteohub,2013-02-16 10:25:00,
2013-02-16 05:30:00,33.1,32.5,29.90,East,80,0.0,2.0,98,-99.99,,,-99.99,0.0,meteohub,2013-02-16 10:30:00,
2013-02-16 05:35:00,33.1,32.5,29.89,East,80,0.0,2.0,98,-99.99,,,-99.99,0.0,meteohub,2013-02-16 10:35:00,
2013-02-16 05:40:00,33.1,32.5,29.88,East,80,0.0,2.0,98,-99.99,,,-99.99,0.0,meteohub,2013-02-16 10:40:00,
2013-02-16 05:45:00,33.1,32.5,29.88,East,80,0.0,2.0,98,-99.99,,,-99.99,0.0,meteohub,2013-02-16 10:45:00,
2013-02-16 05:50:00,32.9,32.4,29.88,East,80,0.0,1.0,98,-99.99,,,-99.99,0.0,meteohub,2013-02-16 10:50:00,
2013-02-16 05:55:00,32.7,32.2,29.88,East,80,0.0,0.0,98,-99.99,,,-99.99,0.0,meteohub,2013-02-16 10:55:00,
2013-02-16 06:00:00,32.5,32.0,29.89,East,80,0.0,0.0,98,-99.99,,,-99.99,0.0,meteohub,2013-02-16 11:00:00,
2013-02-16 06:05:00,32.5,32.0,29.88,East,80,0.0,1.0,98,-99.99,,,-99.99,0.0,meteohub,2013-02-16 11:05:00,
2013-02-16 06:10:00,32.5,32.0,29.88,East,80,0.0,1.0,98,-99.99,,,-99.99,0.0,meteohub,2013-02-16 11:10:00,
2013-02-16 06:15:00,32.7,32.2,29.88,ENE,69,0.0,2.0,98,-99.99,,,-99.99,0.0,meteohub,2013-02-16 11:15:00,
2013-02-16 06:20:00,33.1,32.5,29.88,ENE,61,0.0,2.0,98,-99.99,,,-99.99,0.0,meteohub,2013-02-16 11:20:00,
2013-02-16 06:25:00,33.3,32.7,29.88,NE,53,1.0,3.0,98,-99.99,,,-99.99,0.0,meteohub,2013-02-16 11:25:00,
2013-02-16 06:30:00,33.6,33.1,29.89,West,261,2.0,3.0,98,-99.99,,,-99.99,0.0,meteohub,2013-02-16 11:30:00,
2013-02-16 06:35:00,33.6,33.1,29.90,West,265,4.0,5.0,98,-99.99,,,-99.99,0.0,meteohub,2013-02-16 11:35:00,
2013-02-16 06:40:00,33.3,32.7,29.90,West,267,3.0,6.0,98,-99.99,,,-99.99,0.0,meteohub,2013-02-16 11:40:00,
2013-02-16 06:45:00,33.1,32.5,29.90,West,268,2.0,6.0,98,-99.99,,,-99.99,5.0,meteohub,2013-02-16 11:45:00,
2013-02-16 06:50:00,33.3,32.7,29.90,West,261,0.0,6.0,98,-99.99,,,-99.99,5.0,meteohub,2013-02-16 11:50:00,
2013-02-16 06:56:00,33.3,32.7,29.91,West,281,0.0,5.0,98,-99.99,,,-99.99,7.0,meteohub,2013-02-16 11:56:00,
2013-02-16 07:01:00,33.3,32.7,29.91,WNW,283,0.0,4.0,98,-99.99,,,-99.99,9.0,meteohub,2013-02-16 12:01:00,
2013-02-16 07:06:00,33.3,32.7,29.91,WNW,292,0.0,2.0,98,-99.99,,,-99.99,14.0,meteohub,2013-02-16 12:06:00,
2013-02-16 07:11:00,33.4,32.9,29.91,WNW,292,0.0,2.0,98,-99.99,,,-99.99,18.0,meteohub,2013-02-16 12:11:00,
2013-02-16 07:16:00,33.4,32.9,29.91,WNW,294,1.0,1.0,98,-99.99,,,-99.99,23.0,meteohub,2013-02-16 12:16:00,
2013-02-16 07:21:00,33.4,32.9,29.90,NNW,342,0.0,3.0,98,-99.99,,,-99.99,25.0,meteohub,2013-02-16 12:21:00,
2013-02-16 07:26:00,33.4,32.9,29.91,North,0,3.0,3.0,98,-99.99,,,-99.99,25.0,meteohub,2013-02-16 12:26:00,
2013-02-16 07:31:00,33.4,32.9,29.90,North,5,0.0,3.0,98,-99.99,,,-99.99,30.0,meteohub,2013-02-16 12:31:00,
2013-02-16 07:36:00,33.6,33.1,29.90,North,5,0.0,3.0,98,-99.99,,,-99.99,28.0,meteohub,2013-02-16 12:36:00,
2013-02-16 07:41:00,33.6,33.4,29.90,North,5,0.0,3.0,99,-99.99,,,-99.99,23.0,meteohub,2013-02-16 12:41:00,
2013-02-16 07:46:00,33.8,33.6,29.90,North,5,0.0,1.0,99,-99.99,,,-99.99,33.0,meteohub,2013-02-16 12:46:00,
2013-02-16 07:51:00,34.0,33.8,29.90,North,5,0.0,1.0,99,-99.99,,,-99.99,69.0,meteohub,2013-02-16 12:51:00,
2013-02-16 07:56:00,34.2,33.6,29.90,North,5,0.0,1.0,98,-99.99,,,-99.99,67.0,meteohub,2013-02-16 12:56:00,
2013-02-16 08:01:00,34.3,34.2,29.90,North,5,0.0,1.0,99,-99.99,,,-99.99,65.0,meteohub,2013-02-16 13:01:00,
2013-02-16 08:06:00,34.3,34.2,29.91,NNW,332,1.0,1.0,99,-99.99,,,-99.99,44.0,meteohub,2013-02-16 13:06:00,
2013-02-16 08:11:00,34.3,34.2,29.91,WNW,300,2.0,2.0,99,-99.99,,,-99.99,40.0,meteohub,2013-02-16 13:11:00,
2013-02-16 08:16:00,34.5,34.3,29.91,WNW,284,0.0,3.0,99,-99.99,,,-99.99,40.0,meteohub,2013-02-16 13:16:00,
2013-02-16 08:21:00,34.7,34.5,29.91,WNW,284,0.0,3.0,99,-99.99,,,-99.99,67.0,meteohub,2013-02-16 13:21:00,
2013-02-16 08:26:00,34.7,34.5,29.91,West,277,2.0,3.0,99,-99.99,,,-99.99,86.0,meteohub,2013-02-16 13:26:00,
2013-02-16 08:31:00,34.7,34.5,29.91,West,268,3.0,4.0,99,-99.99,,,-99.99,79.0,meteohub,2013-02-16 13:31:00,
2013-02-16 08:36:00,34.9,34.7,29.91,West,264,0.0,4.0,99,-99.99,,,-99.99,100.0,meteohub,2013-02-16 13:36:00,
2013-02-16 08:41:00,35.1,34.9,29.91,West,264,2.0,4.0,99,-99.99,,,-99.99,72.0,meteohub,2013-02-16 13:41:00,
2013-02-16 08:46:00,35.1,34.9,29.90,West,265,2.0,4.0,99,-99.99,,,-99.99,104.0,meteohub,2013-02-16 13:46:00,
2013-02-16 08:51:00,35.1,34.9,29.91,West,268,1.0,2.0,99,-99.99,,,-99.99,98.0,meteohub,2013-02-16 13:51:00,
2013-02-16 08:56:00,35.2,35.1,29.91,West,268,0.0,3.0,99,-99.99,,,-99.99,81.0,meteohub,2013-02-16 13:56:00,
2013-02-16 09:01:00,35.2,35.1,29.91,West,268,2.0,3.0,99,-99.99,,,-99.99,70.0,meteohub,2013-02-16 14:01:00,
2013-02-16 09:06:00,35.2,35.1,29.91,West,266,1.0,3.0,99,-99.99,,,-99.99,74.0,meteohub,2013-02-16 14:06:00,
2013-02-16 09:11:00,35.4,35.2,29.91,West,270,3.0,4.0,99,-99.99,,,-99.99,69.0,meteohub,2013-02-16 14:11:00,
2013-02-16 09:16:00,35.4,35.2,29.91,West,266,0.0,4.0,99,-99.99,,,-99.99,113.0,meteohub,2013-02-16 14:16:00,
2013-02-16 09:21:00,35.8,35.6,29.90,West,275,2.0,4.0,99,-99.99,,,-99.99,149.0,meteohub,2013-02-16 14:21:00,
2013-02-16 09:26:00,35.8,35.6,29.91,West,266,3.0,7.0,99,-99.99,,,-99.99,202.0,meteohub,2013-02-16 14:26:00,
2013-02-16 09:31:00,36.0,35.8,29.91,West,260,3.0,7.0,99,-99.99,,,-99.99,156.0,meteohub,2013-02-16 14:31:00,
2013-02-16 09:36:00,36.0,35.8,29.91,West,261,3.0,7.0,99,-99.99,,,-99.99,128.0,meteohub,2013-02-16 14:36:00,
2013-02-16 09:41:00,35.8,35.6,29.91,West,261,3.0,4.0,99,-99.99,,,-99.99,77.0,meteohub,2013-02-16 14:41:00,
2013-02-16 09:46:00,35.8,35.2,29.91,West,265,1.0,4.0,98,-99.99,,,-99.99,65.0,meteohub,2013-02-16 14:46:00,
2013-02-16 09:51:00,35.8,35.2,29.91,West,259,2.0,4.0,98,-99.99,,,-99.99,74.0,meteohub,2013-02-16 14:51:00,
2013-02-16 09:56:00,35.4,34.9,29.92,West,259,5.0,5.0,98,-99.99,,,-99.99,65.0,meteohub,2013-02-16 14:56:00,
2013-02-16 10:01:00,35.4,34.7,29.91,West,260,5.0,8.0,97,-99.99,,,-99.99,81.0,meteohub,2013-02-16 15:01:00,
2013-02-16 10:06:00,35.2,34.0,29.91,West,265,4.0,8.0,95,-99.99,,,-99.99,100.0,meteohub,2013-02-16 15:06:00,
2013-02-16 10:11:00,35.2,33.6,29.91,West,276,4.0,8.0,94,-99.99,,,-99.99,98.0,meteohub,2013-02-16 15:11:00,
2013-02-16 10:16:00,35.2,33.4,29.91,West,263,2.0,6.0,93,-99.99,,,-99.99,120.0,meteohub,2013-02-16 15:16:00,
2013-02-16 10:21:00,35.2,32.9,29.91,West,263,3.0,5.0,91,-99.99,,,-99.99,102.0,meteohub,2013-02-16 15:21:00,
2013-02-16 10:26:00,35.4,32.7,29.91,West,265,1.0,5.0,90,-99.99,,,-99.99,81.0,meteohub,2013-02-16 15:26:00,
2013-02-16 10:31:00,35.4,33.1,29.91,West,265,0.0,5.0,91,-99.99,,,-99.99,90.0,meteohub,2013-02-16 15:31:00,
2013-02-16 10:36:00,35.4,33.1,29.90,NW,321,0.0,4.0,91,-99.99,,,-99.99,95.0,meteohub,2013-02-16 15:36:00,
2013-02-16 10:41:00,35.6,32.9,29.90,WNW,299,1.0,6.0,90,-99.99,,,-99.99,114.0,meteohub,2013-02-16 15:41:00,
2013-02-16 10:46:00,35.8,32.5,29.90,NW,314,0.0,6.0,88,-99.99,,,-99.99,88.0,meteohub,2013-02-16 15:46:00,
2013-02-16 10:51:00,35.8,32.5,29.90,NW,306,2.0,6.0,88,-99.99,,,-99.99,69.0,meteohub,2013-02-16 15:51:00,
2013-02-16 10:56:00,35.8,32.4,29.90,NW,307,1.0,4.0,87,-99.99,,,-99.99,69.0,meteohub,2013-02-16 15:56:00,
2013-02-16 11:01:00,35.6,32.2,29.90,WNW,289,0.0,4.0,87,-99.99,,,-99.99,67.0,meteohub,2013-02-16 16:01:00,
2013-02-16 11:06:00,35.4,32.2,29.90,WNW,292,1.0,4.0,88,-99.99,,,-99.99,77.0,meteohub,2013-02-16 16:06:00,
2013-02-16 11:11:00,35.4,32.0,29.90,WNW,297,0.0,4.0,87,-99.99,,,-99.99,86.0,meteohub,2013-02-16 16:11:00,
2013-02-16 11:16:00,35.6,32.2,29.89,NW,306,0.0,2.0,87,-99.99,,,-99.99,98.0,meteohub,2013-02-16 16:16:00,
2013-02-16 11:21:00,35.8,32.4,29.89,NW,317,0.0,2.0,87,-99.99,,,-99.99,114.0,meteohub,2013-02-16 16:21:00,
2013-02-16 11:26:00,35.8,32.4,29.89,West,265,2.0,3.0,87,-99.99,,,-99.99,95.0,meteohub,2013-02-16 16:26:00,
2013-02-16 11:31:00,35.4,32.2,29.89,West,265,1.0,3.0,88,-99.99,,,-99.99,97.0,meteohub,2013-02-16 16:31:00,
2013-02-16 11:36:00,35.4,32.2,29.89,West,265,1.0,3.0,88,-99.99,,,-99.99,91.0,meteohub,2013-02-16 16:36:00,
2013-02-16 11:41:00,35.2,31.1,29.88,West,263,4.0,5.0,85,-99.99,,,-99.99,109.0,meteohub,2013-02-16 16:41:00,
2013-02-16 11:46:00,35.2,30.9,29.88,WSW,258,5.0,5.0,84,-99.99,,,-99.99,114.0,meteohub,2013-02-16 16:46:00,
2013-02-16 11:51:00,35.2,31.1,29.88,West,270,3.0,6.0,85,-99.99,,,-99.99,88.0,meteohub,2013-02-16 16:51:00,
2013-02-16 11:56:00,35.2,31.1,29.88,West,271,3.0,7.0,85,-99.99,,,-99.99,109.0,meteohub,2013-02-16 16:56:00,
2013-02-16 12:01:00,35.1,31.3,29.88,WSW,257,4.0,7.0,86,-99.99,,,-99.99,86.0,meteohub,2013-02-16 17:01:00,
2013-02-16 12:06:00,34.9,31.1,29.87,West,266,3.0,7.0,86,-99.99,,,-99.99,76.0,meteohub,2013-02-16 17:06:00,
2013-02-16 12:11:00,34.9,31.1,29.87,West,260,1.0,7.0,86,-99.99,,,-99.99,88.0,meteohub,2013-02-16 17:11:00,
2013-02-16 12:16:00,34.9,31.1,29.87,West,264,1.0,7.0,86,-99.99,,,-99.99,83.0,meteohub,2013-02-16 17:16:00,
2013-02-16 12:21:00,34.9,31.1,29.87,West,273,2.0,7.0,86,-99.99,,,-99.99,90.0,meteohub,2013-02-16 17:21:00,
2013-02-16 12:26:00,34.9,31.1,29.87,West,268,2.0,5.0,86,-99.99,,,-99.99,104.0,meteohub,2013-02-16 17:26:00,
2013-02-16 12:31:00,35.1,31.6,29.87,West,270,1.0,4.0,87,-99.99,,,-99.99,105.0,meteohub,2013-02-16 17:31:00,
2013-02-16 12:36:00,35.1,31.6,29.86,West,270,0.0,4.0,87,-99.99,,,-99.99,105.0,meteohub,2013-02-16 17:36:00,
2013-02-16 12:41:00,35.2,32.0,29.86,West,277,1.0,4.0,88,-99.99,,,-99.99,98.0,meteohub,2013-02-16 17:41:00,
2013-02-16 12:46:00,35.2,31.5,29.86,WNW,294,3.0,3.0,86,-99.99,,,-99.99,83.0,meteohub,2013-02-16 17:46:00,
2013-02-16 12:51:00,35.2,31.8,29.86,West,271,0.0,3.0,87,-99.99,,,-99.99,77.0,meteohub,2013-02-16 17:51:00,
2013-02-16 12:56:00,35.2,31.8,29.86,WNW,300,0.0,4.0,87,-99.99,,,-99.99,76.0,meteohub,2013-02-16 17:56:00,
2013-02-16 13:01:00,35.2,31.8,29.86,WNW,284,2.0,4.0,87,-99.99,,,-99.99,84.0,meteohub,2013-02-16 18:01:00,
2013-02-16 13:06:00,35.2,31.5,29.86,WNW,293,2.0,4.0,86,-99.99,,,-99.99,109.0,meteohub,2013-02-16 18:06:00,
2013-02-16 13:11:00,35.2,31.8,29.86,WNW,296,1.0,3.0,87,-99.99,,,-99.99,120.0,meteohub,2013-02-16 18:11:00,
2013-02-16 13:16:00,35.4,32.0,29.86,West,266,1.0,3.0,87,-99.99,,,-99.99,97.0,meteohub,2013-02-16 18:16:00,
2013-02-16 13:21:00,35.2,31.8,29.86,West,278,2.0,4.0,87,-99.99,,,-99.99,98.0,meteohub,2013-02-16 18:21:00,
2013-02-16 13:26:00,35.1,31.6,29.86,West,261,4.0,4.0,87,-99.99,,,-99.99,77.0,meteohub,2013-02-16 18:26:00,
2013-02-16 13:31:00,34.9,31.5,29.86,West,270,2.0,6.0,87,-99.99,,,-99.99,84.0,meteohub,2013-02-16 18:31:00,
2013-02-16 13:36:00,34.7,31.3,29.86,WSW,254,5.0,7.0,87,-99.99,,,-99.99,84.0,meteohub,2013-02-16 18:36:00,
2013-02-16 13:41:00,34.5,31.3,29.86,West,272,2.0,7.0,88,-99.99,,,-99.99,65.0,meteohub,2013-02-16 18:41:00,
2013-02-16 13:47:00,34.3,31.1,29.86,West,271,3.0,7.0,88,-99.99,,,-99.99,51.0,meteohub,2013-02-16 18:47:00,
2013-02-16 13:52:00,34.3,31.1,29.86,West,268,5.0,7.0,88,-99.99,,,-99.99,44.0,meteohub,2013-02-16 18:52:00,
2013-02-16 13:57:00,34.2,30.9,29.86,WNW,284,4.0,6.0,88,-99.99,,,-99.99,37.0,meteohub,2013-02-16 18:57:00,
2013-02-16 14:02:00,34.2,31.3,29.86,WSW,256,4.0,6.0,89,-99.99,,,-99.99,30.0,meteohub,2013-02-16 19:02:00,
2013-02-16 14:07:00,34.2,30.9,29.86,West,267,3.0,7.0,88,-99.99,,,-99.99,37.0,meteohub,2013-02-16 19:07:00,
2013-02-16 14:12:00,34.0,31.1,29.86,West,259,4.0,7.0,89,-99.99,,,-99.99,44.0,meteohub,2013-02-16 19:12:00,
2013-02-16 14:17:00,33.8,30.9,29.86,West,271,1.0,7.0,89,-99.99,,,-99.99,33.0,meteohub,2013-02-16 19:17:00,
2013-02-16 14:22:00,33.8,30.9,29.85,West,269,2.0,7.0,89,-99.99,,,-99.99,44.0,meteohub,2013-02-16 19:22:00,
2013-02-16 14:27:00,33.6,30.9,29.86,West,271,2.0,5.0,90,-99.99,,,-99.99,42.0,meteohub,2013-02-16 19:27:00,
2013-02-16 14:32:00,33.6,30.9,29.86,West,273,1.0,5.0,90,-99.99,,,-99.99,32.0,meteohub,2013-02-16 19:32:00,
2013-02-16 14:37:00,33.6,31.3,29.86,West,273,2.0,3.0,91,-99.99,,,-99.99,35.0,meteohub,2013-02-16 19:37:00,
2013-02-16 14:42:00,33.6,31.3,29.85,West,274,0.0,3.0,91,-99.99,,,-99.99,32.0,meteohub,2013-02-16 19:42:00,
2013-02-16 14:47:00,33.4,31.1,29.85,West,273,2.0,2.0,91,-99.99,,,-99.99,30.0,meteohub,2013-02-16 19:47:00,
2013-02-16 14:52:00,33.3,30.9,29.86,West,279,2.0,4.0,91,-99.99,,,-99.99,19.0,meteohub,2013-02-16 19:52:00,
2013-02-16 14:57:00,33.3,31.1,29.86,West,261,1.0,4.0,92,-99.99,,,-99.99,28.0,meteohub,2013-02-16 19:57:00,
2013-02-16 15:02:00,33.3,31.1,29.86,WNW,282,1.0,4.0,92,-99.99,,,-99.99,21.0,meteohub,2013-02-16 20:02:00,
2013-02-16 15:07:00,33.3,31.1,29.86,WNW,283,1.0,4.0,92,-99.99,,,-99.99,18.0,meteohub,2013-02-16 20:07:00,
2013-02-16 15:12:00,33.1,31.1,29.86,WNW,283,0.0,3.0,92,-99.99,,,-99.99,18.0,meteohub,2013-02-16 20:12:00,
2013-02-16 15:17:00,33.1,31.1,29.86,WNW,296,1.0,2.0,92,-99.99,,,-99.99,14.0,meteohub,2013-02-16 20:17:00,
2013-02-16 15:22:00,32.9,30.9,29.86,WNW,296,1.0,3.0,92,-99.99,,,-99.99,14.0,meteohub,2013-02-16 20:22:00,
2013-02-16 15:27:00,32.9,31.1,29.86,WNW,295,0.0,3.0,93,-99.99,,,-99.99,11.0,meteohub,2013-02-16 20:27:00,
2013-02-16 15:32:00,32.7,30.9,29.86,West,266,1.0,3.0,93,-99.99,,,-99.99,9.0,meteohub,2013-02-16 20:32:00,
2013-02-16 15:37:00,32.5,30.7,29.86,West,259,1.0,4.0,93,-99.99,,,-99.99,11.0,meteohub,2013-02-16 20:37:00,
2013-02-16 15:42:00,32.4,30.7,29.86,West,265,2.0,5.0,94,-99.99,,,-99.99,11.0,meteohub,2013-02-16 20:42:00,
2013-02-16 15:47:00,32.2,30.6,29.86,West,260,4.0,5.0,94,-99.99,,,-99.99,9.0,meteohub,2013-02-16 20:47:00,
2013-02-16 15:52:00,31.8,30.4,29.85,West,262,3.0,5.0,94,-99.99,,,-99.99,9.0,meteohub,2013-02-16 20:52:00,
2013-02-16 15:57:00,31.6,30.2,29.85,West,273,3.0,5.0,94,-99.99,,,-99.99,7.0,meteohub,2013-02-16 20:57:00,
2013-02-16 16:02:00,31.5,30.2,29.85,WSW,257,3.0,6.0,95,-99.99,,,-99.99,7.0,meteohub,2013-02-16 21:02:00,
2013-02-16 16:07:00,31.5,30.2,29.86,West,269,3.0,7.0,95,-99.99,,,-99.99,5.0,meteohub,2013-02-16 21:07:00,
2013-02-16 16:12:00,31.3,30.0,29.85,West,261,2.0,7.0,95,-99.99,,,-99.99,5.0,meteohub,2013-02-16 21:12:00,
2013-02-16 16:17:00,31.3,30.0,29.85,West,270,2.0,7.0,95,-99.99,,,-99.99,5.0,meteohub,2013-02-16 21:17:00,
2013-02-16 16:22:00,31.3,30.0,29.85,WNW,285,3.0,6.0,95,-99.99,,,-99.99,0.0,meteohub,2013-02-16 21:22:00,
2013-02-16 16:27:00,31.1,29.8,29.86,WNW,303,0.0,6.0,95,-99.99,,,-99.99,0.0,meteohub,2013-02-16 21:27:00,
2013-02-16 16:32:00,31.1,29.8,29.85,WNW,286,2.0,5.0,95,-99.99,,,-99.99,0.0,meteohub,2013-02-16 21:32:00,
2013-02-16 16:37:00,30.9,29.7,29.86,WNW,284,2.0,6.0,95,-99.99,,,-99.99,0.0,meteohub,2013-02-16 21:37:00,
2013-02-16 16:42:00,30.9,29.7,29.85,WNW,290,1.0,6.0,95,-99.99,,,-99.99,0.0,meteohub,2013-02-16 21:42:00,
2013-02-16 16:47:00,30.9,29.7,29.85,West,269,2.0,4.0,95,-99.99,,,-99.99,0.0,meteohub,2013-02-16 21:47:00,
2013-02-16 16:52:00,30.9,29.7,29.86,West,274,2.0,3.0,95,-99.99,,,-99.99,0.0,meteohub,2013-02-16 21:52:00,
2013-02-16 16:57:00,30.9,29.7,29.85,West,277,1.0,3.0,95,-99.99,,,-99.99,0.0,meteohub,2013-02-16 21:57:00,
2013-02-16 17:02:00,30.9,29.8,29.85,West,277,2.0,3.0,96,-99.99,,,-99.99,0.0,meteohub,2013-02-16 22:02:00,
2013-02-16 17:07:00,30.9,29.8,29.85,WNW,290,0.0,2.0,96,-99.99,,,-99.99,0.0,meteohub,2013-02-16 22:07:00,
2013-02-16 17:12:00,30.9,29.8,29.85,WNW,297,0.0,5.0,96,-99.99,,,-99.99,0.0,meteohub,2013-02-16 22:12:00,
2013-02-16 17:17:00,30.9,29.8,29.85,WNW,283,0.0,5.0,96,-99.99,,,-99.99,0.0,meteohub,2013-02-16 22:17:00,
2013-02-16 17:22:00,30.7,29.7,29.85,West,280,0.0,3.0,96,-99.99,,,-99.99,0.0,meteohub,2013-02-16 22:22:00,
2013-02-16 17:27:00,30.7,29.7,29.85,West,263,0.0,4.0,96,-99.99,,,-99.99,0.0,meteohub,2013-02-16 22:27:00,
2013-02-16 17:32:00,30.7,29.7,29.85,WNW,300,0.0,4.0,96,-99.99,,,-99.99,0.0,meteohub,2013-02-16 22:32:00,
2013-02-16 17:37:00,30.7,29.7,29.85,WNW,294,0.0,3.0,96,-99.99,,,-99.99,0.0,meteohub,2013-02-16 22:37:00,
2013-02-16 17:42:00,30.7,29.7,29.85,West,277,1.0,5.0,96,-99.99,,,-99.99,0.0,meteohub,2013-02-16 22:42:00,
2013-02-16 17:47:00,30.7,29.7,29.85,West,275,0.0,5.0,96,-99.99,,,-99.99,0.0,meteohub,2013-02-16 22:47:00,
2013-02-16 17:52:00,30.7,30.0,29.85,West,278,1.0,5.0,97,-99.99,,,-99.99,0.0,meteohub,2013-02-16 22:52:00,
2013-02-16 17:58:00,30.7,29.7,29.85,West,279,0.0,2.0,96,-99.99,,,-99.99,0.0,meteohub,2013-02-16 22:58:00,
2013-02-16 18:03:00,30.7,30.0,29.84,WNW,284,1.0,2.0,97,-99.99,,,-99.99,0.0,meteohub,2013-02-16 23:03:00,
2013-02-16 18:08:00,30.7,30.0,29.84,West,276,2.0,2.0,97,-99.99,,,-99.99,0.0,meteohub,2013-02-16 23:08:00,
2013-02-16 18:13:00,30.6,29.8,29.84,West,272,1.0,3.0,97,-99.99,,,-99.99,0.0,meteohub,2013-02-16 23:13:00,
2013-02-16 18:18:00,30.6,29.8,29.84,West,277,2.0,3.0,97,-99.99,,,-99.99,0.0,meteohub,2013-02-16 23:18:00,
2013-02-16 18:23:00,30.6,29.8,29.84,West,274,1.0,4.0,97,-99.99,,,-99.99,0.0,meteohub,2013-02-16 23:23:00,
2013-02-16 18:28:00,30.6,29.8,29.84,West,263,3.0,4.0,97,-99.99,,,-99.99,0.0,meteohub,2013-02-16 23:28:00,
2013-02-16 18:33:00,30.6,29.8,29.84,West,267,2.0,4.0,97,-99.99,,,-99.99,0.0,meteohub,2013-02-16 23:33:00,
2013-02-16 18:38:00,30.4,29.7,29.83,West,263,2.0,6.0,97,-99.99,,,-99.99,0.0,meteohub,2013-02-16 23:38:00,
2013-02-16 18:43:00,30.4,29.7,29.83,West,272,1.0,6.0,97,-99.99,,,-99.99,0.0,meteohub,2013-02-16 23:43:00,
2013-02-16 18:48:00,30.4,29.7,29.83,WNW,289,2.0,8.0,97,-99.99,,,-99.99,0.0,meteohub,2013-02-16 23:48:00,
2013-02-16 18:53:00,30.2,29.5,29.83,West,269,3.0,8.0,97,-99.99,,,-99.99,0.0,meteohub,2013-02-16 23:53:00,
2013-02-16 18:58:00,30.2,29.5,29.83,West,280,3.0,8.0,97,-99.99,,,-99.99,0.0,meteohub,2013-02-16 23:58:00,
2013-02-16 19:03:00,30.2,29.5,29.83,WNW,287,2.0,6.0,97,-99.99,,,-99.99,0.0,meteohub,2013-02-17 00:03:00,
2013-02-16 19:08:00,30.2,29.5,29.83,West,273,1.0,6.0,97,-99.99,,,-99.99,0.0,meteohub,2013-02-17 00:08:00,
2013-02-16 19:13:00,30.2,29.5,29.83,West,279,1.0,5.0,97,-99.99,,,-99.99,0.0,meteohub,2013-02-17 00:13:00,
2013-02-16 19:18:00,30.2,29.5,29.82,West,281,1.0,5.0,97,-99.99,,,-99.99,0.0,meteohub,2013-02-17 00:18:00,
2013-02-16 19:23:00,30.2,29.5,29.82,West,281,1.0,5.0,97,-99.99,,,-99.99,0.0,meteohub,2013-02-17 00:23:00,
2013-02-16 19:28:00,30.4,29.7,29.82,West,279,1.0,5.0,97,-99.99,,,-99.99,0.0,meteohub,2013-02-17 00:28:00,
2013-02-16 19:33:00,30.4,29.7,29.82,West,275,1.0,3.0,97,-99.99,,,-99.99,0.0,meteohub,2013-02-17 00:33:00,
2013-02-16 19:38:00,30.4,29.7,29.82,WNW,283,1.0,3.0,97,-99.99,,,-99.99,0.0,meteohub,2013-02-17 00:38:00,
2013-02-16 19:43:00,30.2,29.5,29.81,West,267,2.0,3.0,97,-99.99,,,-99.99,0.0,meteohub,2013-02-17 00:43:00,
2013-02-16 19:48:00,30.2,29.5,29.81,WNW,283,1.0,4.0,97,-99.99,,,-99.99,0.0,meteohub,2013-02-17 00:48:00,
2013-02-16 19:53:00,30.2,29.5,29.81,West,272,1.0,4.0,97,-99.99,,,-99.99,0.0,meteohub,2013-02-17 00:53:00,
2013-02-16 19:58:00,30.2,29.5,29.81,West,269,2.0,4.0,97,-99.99,,,-99.99,0.0,meteohub,2013-02-17 00:58:00,
2013-02-16 20:03:00,30.2,29.5,29.81,West,273,2.0,4.0,97,-99.99,,,-99.99,0.0,meteohub,2013-02-17 01:03:00,
2013-02-16 20:08:00,30.0,29.3,29.81,West,273,4.0,4.0,97,-99.99,,,-99.99,0.0,meteohub,2013-02-17 01:08:00,
2013-02-16 20:13:00,30.0,29.3,29.81,West,274,3.0,7.0,97,-99.99,,,-99.99,0.0,meteohub,2013-02-17 01:13:00,
2013-02-16 20:18:00,29.8,29.1,29.81,West,267,3.0,7.0,97,-99.99,,,-99.99,0.0,meteohub,2013-02-17 01:18:00,
2013-02-16 20:23:00,29.8,29.1,29.81,West,275,4.0,7.0,97,-99.99,,,-99.99,0.0,meteohub,2013-02-17 01:23:00,
2013-02-16 20:28:00,29.8,29.1,29.81,WNW,291,4.0,8.0,97,-99.99,,,-99.99,0.0,meteohub,2013-02-17 01:28:00,
2013-02-16 20:33:00,29.8,29.1,29.81,West,272,3.0,9.0,97,-99.99,,,-99.99,0.0,meteohub,2013-02-17 01:33:00,
2013-02-16 20:38:00,29.8,29.1,29.81,WNW,288,2.0,9.0,97,-99.99,,,-99.99,0.0,meteohub,2013-02-17 01:38:00,
2013-02-16 20:44:00,29.8,29.1,29.81,West,274,2.0,8.0,97,-99.99,,,-99.99,0.0,meteohub,2013-02-17 01:44:00,
2013-02-16 20:49:00,29.8,29.1,29.81,West,279,4.0,7.0,97,-99.99,,,-99.99,0.0,meteohub,2013-02-17 01:49:00,
2013-02-16 20:54:00,29.8,29.1,29.80,West,261,3.0,8.0,97,-99.99,,,-99.99,0.0,meteohub,2013-02-17 01:54:00,
2013-02-16 20:59:00,29.7,28.9,29.80,West,271,3.0,8.0,97,-99.99,,,-99.99,0.0,meteohub,2013-02-17 01:59:00,
2013-02-16 21:04:00,29.7,28.9,29.80,West,266,3.0,8.0,97,-99.99,,,-99.99,0.0,meteohub,2013-02-17 02:04:00,
2013-02-16 21:09:00,29.7,28.6,29.80,WNW,287,2.0,7.0,96,-99.99,,,-99.99,0.0,meteohub,2013-02-17 02:09:00,
2013-02-16 21:14:00,29.7,28.6,29.80,WNW,286,3.0,7.0,96,-99.99,,,-99.99,0.0,meteohub,2013-02-17 02:14:00,
2013-02-16 21:19:00,29.7,28.6,29.80,WSW,252,6.0,6.0,96,-99.99,,,-99.99,0.0,meteohub,2013-02-17 02:19:00,
2013-02-16 21:24:00,29.5,28.4,29.80,West,279,3.0,7.0,96,-99.99,,,-99.99,0.0,meteohub,2013-02-17 02:24:00,
2013-02-16 21:29:00,29.5,28.4,29.80,West,268,3.0,7.0,96,-99.99,,,-99.99,0.0,meteohub,2013-02-17 02:29:00,
2013-02-16 21:34:00,29.5,28.4,29.80,West,265,3.0,8.0,96,-99.99,,,-99.99,0.0,meteohub,2013-02-17 02:34:00,
2013-02-16 21:39:00,29.5,28.4,29.80,WNW,286,2.0,8.0,96,-99.99,,,-99.99,0.0,meteohub,2013-02-17 02:39:00,
2013-02-16 21:44:00,29.3,28.2,29.79,West,264,4.0,10.0,96,-99.99,,,-99.99,0.0,meteohub,2013-02-17 02:44:00,
2013-02-16 21:49:00,29.3,28.2,29.79,West,271,3.0,10.0,96,-99.99,,,-99.99,0.0,meteohub,2013-02-17 02:49:00,
2013-02-16 21:54:00,29.3,28.2,29.79,West,271,6.0,7.0,96,-99.99,,,-99.99,0.0,meteohub,2013-02-17 02:54:00,
2013-02-16 21:59:00,29.1,28.0,29.79,West,261,3.0,7.0,96,-99.99,,,-99.99,0.0,meteohub,2013-02-17 02:59:00,
2013-02-16 22:04:00,29.1,28.0,29.79,NW,309,4.0,7.0,96,-99.99,,,-99.99,0.0,meteohub,2013-02-17 03:04:00,
2013-02-16 22:09:00,29.1,28.0,29.78,WSW,258,3.0,8.0,96,-99.99,,,-99.99,0.0,meteohub,2013-02-17 03:09:00,
2013-02-16 22:14:00,29.1,28.4,29.78,West,275,2.0,8.0,97,-99.99,,,-99.99,0.0,meteohub,2013-02-17 03:14:00,
2013-02-16 22:19:00,29.1,28.4,29.78,WNW,291,2.0,8.0,97,-99.99,,,-99.99,0.0,meteohub,2013-02-17 03:19:00,
2013-02-16 22:24:00,28.9,27.9,29.78,West,279,5.0,7.0,96,-99.99,,,-99.99,0.0,meteohub,2013-02-17 03:24:00,
2013-02-16 22:29:00,28.9,28.2,29.77,West,280,3.0,8.0,97,-99.99,,,-99.99,0.0,meteohub,2013-02-17 03:29:00,
2013-02-16 22:34:00,28.8,28.0,29.77,WNW,290,2.0,8.0,97,-99.99,,,-99.99,0.0,meteohub,2013-02-17 03:34:00,
2013-02-16 22:39:00,28.8,28.0,29.77,WNW,298,3.0,8.0,97,-99.99,,,-99.99,0.0,meteohub,2013-02-17 03:39:00,
2013-02-16 22:44:00,28.8,28.0,29.76,West,271,1.0,7.0,97,-99.99,,,-99.99,0.0,meteohub,2013-02-17 03:44:00,
2013-02-16 22:49:00,28.8,28.0,29.77,WSW,257,3.0,5.0,97,-99.99,,,-99.99,0.0,meteohub,2013-02-17 03:49:00,
2013-02-16 22:54:00,28.8,28.0,29.76,WNW,290,1.0,5.0,97,-99.99,,,-99.99,0.0,meteohub,2013-02-17 03:54:00,
2013-02-16 22:59:00,28.8,28.0,29.76,West,269,4.0,4.0,97,-99.99,,,-99.99,0.0,meteohub,2013-02-17 03:59:00,
2013-02-16 23:04:00,28.8,28.0,29.76,West,277,3.0,4.0,97,-99.99,,,-99.99,0.0,meteohub,2013-02-17 04:04:00,
2013-02-16 23:09:00,28.8,28.0,29.76,West,267,3.0,4.0,97,-99.99,,,-99.99,0.0,meteohub,2013-02-17 04:09:00,
2013-02-16 23:14:00,28.6,27.9,29.76,West,281,5.0,5.0,97,-99.99,,,-99.99,0.0,meteohub,2013-02-17 04:14:00,
2013-02-16 23:19:00,28.4,27.7,29.76,WSW,257,4.0,7.0,97,-99.99,,,-99.99,0.0,meteohub,2013-02-17 04:19:00,
2013-02-16 23:24:00,28.2,27.1,29.75,WSW,250,7.0,7.0,96,-99.99,,,-99.99,0.0,meteohub,2013-02-17 04:24:00,
2013-02-16 23:29:00,28.2,27.1,29.75,West,277,5.0,7.0,96,-99.99,,,-99.99,0.0,meteohub,2013-02-17 04:29:00,
2013-02-16 23:34:00,28.0,27.0,29.75,West,267,3.0,8.0,96,-99.99,,,-99.99,0.0,meteohub,2013-02-17 04:34:00,
2013-02-16 23:39:00,28.0,27.3,29.74,West,265,4.0,9.0,97,-99.99,,,-99.99,0.0,meteohub,2013-02-17 04:39:00,
2013-02-16 23:44:00,28.0,27.3,29.74,West,272,4.0,11.0,97,-99.99,,,-99.99,0.0,meteohub,2013-02-17 04:44:00,
2013-02-16 23:49:00,27.9,26.8,29.74,West,280,2.0,11.0,96,-99.99,,,-99.99,0.0,meteohub,2013-02-17 04:49:00,
2013-02-16 23:54:00,27.7,26.6,29.74,West,267,4.0,11.0,96,-99.99,,,-99.99,0.0,meteohub,2013-02-17 04:54:00,
2013-02-16 23:59:00,27.7,26.6,29.74,West,271,7.0,9.0,96,-99.99,,,-99.99,0.0,meteohub,2013-02-17 04:59:00,